| time (UTC) | temp C | wind direction | speed KPH | gust KPH | rain 1hr cm | rain 24hr cm | rain mn cm | humidity % | barometer mb |
| 20260903104540 | 11 | 146 | 0.0 | 0.0 | 0.05 | 0.81 | 0.20 | 90 | 1007.1 |
| 20260903103039 | 11 | 146 | 0.0 | 0.0 | 0.10 | 0.81 | 0.20 | 89 | 1007.3 |
| 20260903101538 | 11 | 146 | 0.0 | 0.0 | 0.13 | 0.81 | 0.20 | 90 | 1007.3 |
| 20260903100039 | 11 | 146 | 0.0 | 0.0 | 0.15 | 0.79 | 0.18 | 90 | 1007.2 |
| 20260903094545 | 11 | 146 | 0.0 | 0.0 | 0.13 | 0.76 | 0.15 | 89 | 1007.4 |
| 20260903093034 | 12 | 146 | 0.0 | 0.0 | 0.08 | 0.71 | 0.10 | 90 | 1007.4 |
| 20260903091534 | 12 | 146 | 0.0 | 0.0 | 0.08 | 0.69 | 0.08 | 89 | 1007.2 |
| 20260903090039 | 12 | 146 | 0.0 | 0.0 | 0.03 | 0.64 | 0.03 | 89 | 1007.0 |
| 20260903084531 | 12 | 146 | 0.0 | 0.0 | 0.03 | 0.64 | 0.03 | 88 | 1006.7 |
| 20260903083033 | 12 | 146 | 0.0 | 0.0 | 0.03 | 0.64 | 0.03 | 88 | 1006.6 |
| 20260903081526 | 12 | 146 | 0.0 | 0.0 | 0.00 | 0.61 | 0.00 | 88 | 1006.4 |
| 20260903080024 | 12 | 146 | 0.0 | 0.0 | 0.00 | 0.61 | 0.00 | 87 | 1006.2 |
| 20260903074522 | 12 | 146 | 0.0 | 0.0 | 0.00 | 0.61 | 0.00 | 86 | 1006.1 |
| 20260903073021 | 12 | 146 | 0.0 | 0.0 | 0.00 | 0.61 | 0.00 | 83 | 1005.8 |
| 20260903071518 | 12 | 143 | 0.0 | 0.0 | 0.03 | 0.61 | 0.00 | 84 | 1005.8 |
| 20260903070019 | 12 | 143 | 0.0 | 0.0 | 0.23 | 0.61 | 0.00 | 85 | 1006.0 |
| 20260903064515 | 12 | 142 | 0.0 | 0.0 | 0.28 | 0.61 | 0.61 | 87 | 1005.7 |
| 20260903063024 | 12 | 139 | 0.0 | 0.0 | 0.33 | 0.61 | 0.61 | 86 | 1006.0 |
| 20260903061512 | 12 | 170 | 0.0 | 0.0 | 0.30 | 0.56 | 0.56 | 85 | 1006.5 |
| 20260903060031 | 12 | 252 | 0.0 | 0.0 | 0.15 | 0.38 | 0.38 | 85 | 1006.6 |
| 20260903054509 | 13 | 253 | 0.0 | 0.0 | 0.13 | 0.33 | 0.33 | 84 | 1006.6 |
| 20260903053008 | 13 | 160 | 0.0 | 0.0 | 0.13 | 0.28 | 0.28 | 83 | 1006.2 |
| 20260903051507 | 13 | 150 | 0.0 | 0.0 | 0.13 | 0.25 | 0.25 | 83 | 1005.7 |
| 20260903050008 | 13 | 148 | 0.0 | 0.0 | 0.13 | 0.23 | 0.23 | 82 | 1005.7 |
| 20260903044507 | 13 | 166 | 0.0 | 0.0 | 0.10 | 0.18 | 0.18 | 83 | 1006.0 |
| 20260903043020 | 13 | 176 | 0.0 | 0.0 | 0.13 | 0.15 | 0.15 | 84 | 1006.0 |
| 20260903041506 | 13 | 184 | 0.0 | 0.0 | 0.13 | 0.13 | 0.13 | 84 | 1006.0 |
| 20260903040008 | 13 | 189 | 0.0 | 0.0 | 0.10 | 0.10 | 0.10 | 82 | 1006.0 |
| 20260903034506 | 13 | 189 | 0.0 | 0.0 | 0.08 | 0.08 | 0.08 | 81 | 1006.1 |
| 20260903033005 | 14 | 216 | 0.0 | 0.0 | 0.03 | 0.03 | 0.03 | 79 | 1006.0 |
| 20260903031503 | 15 | 220 | 0.0 | 0.0 | 0.00 | 0.00 | 0.00 | 75 | 1005.9 |
| 20260903024600 | 16 | 223 | 0.0 | 0.0 | 0.00 | 0.00 | 0.00 | 66 | 1005.5 |
| 20260903023107 | 16 | 224 | 0.0 | 0.0 | 0.00 | 0.00 | 0.00 | 63 | 1005.4 |
| 20260903021605 | 17 | 215 | 0.0 | 0.0 | 0.00 | 0.00 | 0.00 | 59 | 1005.4 |
| 20260903014606 | 17 | 187 | 0.0 | 0.0 | 0.00 | 0.00 | 0.00 | 57 | 1005.4 |
| 20260903013101 | 17 | 193 | 0.0 | 0.0 | 0.00 | 0.00 | 0.00 | 57 | 1005.2 |
| 20260903011556 | 17 | 210 | 0.0 | 0.0 | 0.00 | 0.00 | 0.00 | 58 | 1005.2 |
| 20260903010056 | 18 | 207 | 0.0 | 0.0 | 0.00 | 0.00 | 0.00 | 52 | 1005.1 |
| 20260903004555 | 18 | 219 | 0.0 | 0.0 | 0.00 | 0.00 | 0.00 | 53 | 1005.1 |
| 20260903003054 | 18 | 239 | 0.0 | 0.0 | 0.00 | 0.00 | 0.00 | 54 | 1004.9 |
| 20260903001555 | 18 | 226 | 0.0 | 0.0 | 0.00 | 0.00 | 0.00 | 54 | 1004.7 |
| 20260903000054 | 19 | 257 | 0.0 | 0.0 | 0.00 | 0.00 | 0.00 | 54 | 1004.5 |
| 20260902234612 | 20 | 263 | 0.0 | 0.0 | 0.00 | 0.00 | 0.00 | 46 | 1004.3 |
| 20260902233053 | 20 | 274 | 0.0 | 0.0 | 0.00 | 0.00 | 0.00 | 44 | 1004.3 |
| 20260902231606 | 21 | 254 | 0.0 | 0.0 | 0.00 | 0.00 | 0.00 | 40 | 1004.2 |
| 20260902230105 | 21 | 230 | 0.0 | 0.0 | 0.00 | 0.00 | 0.00 | 39 | 1003.6 |
| 20260902224551 | 22 | 257 | 0.0 | 0.0 | 0.00 | 0.00 | 0.00 | 38 | 1003.4 |
| 20260902223051 | 22 | 259 | 0.0 | 0.0 | 0.00 | 0.00 | 0.00 | 36 | 1003.2 |
| 20260902221551 | 23 | 229 | 0.0 | 0.0 | 0.00 | 0.00 | 0.00 | 30 | 1003.2 |
| 20260902220057 | 24 | 237 | 0.0 | 0.0 | 0.00 | 0.00 | 0.00 | 28 | 1002.5 |
| 20260902214650 | 24 | 237 | 0.0 | 0.0 | 0.00 | 0.00 | 0.00 | 29 | 1002.3 |
| 20260902213048 | 25 | 288 | 0.0 | 0.0 | 0.00 | 0.00 | 0.00 | 31 | 1002.2 |
| 20260902211544 | 23 | 45 | 0.0 | 0.0 | 0.00 | 0.00 | 0.00 | 34 | 1002.4 |
| 20260902210043 | 23 | 45 | 0.0 | 0.0 | 0.00 | 0.00 | 0.00 | 37 | 1002.4 |
| 20260902204540 | 23 | 32 | 0.0 | 0.0 | 0.00 | 0.00 | 0.00 | 36 | 1002.6 |
| 20260902203038 | 23 | 31 | 0.0 | 0.0 | 0.00 | 0.00 | 0.00 | 38 | 1002.8 |
| 20260902201539 | 22 | 33 | 0.0 | 0.0 | 0.00 | 0.00 | 0.00 | 40 | 1003.0 |
| 20260902200035 | 22 | 31 | 0.0 | 0.0 | 0.00 | 0.00 | 0.00 | 41 | 1003.2 |
| 20260902194533 | 22 | 31 | 0.0 | 0.0 | 0.00 | 0.00 | 0.00 | 41 | 1003.6 |
| 20260902193030 | 22 | 31 | 0.0 | 0.0 | 0.00 | 0.00 | 0.00 | 39 | 1003.6 |
| 20260902191532 | 22 | 31 | 0.0 | 0.0 | 0.00 | 0.00 | 0.00 | 40 | 1003.9 |
| 20260902190027 | 22 | 31 | 0.0 | 0.0 | 0.00 | 0.00 | 0.00 | 39 | 1004.0 |
| 20260902184525 | 22 | 29 | 0.0 | 0.0 | 0.00 | 0.00 | 0.00 | 41 | 1004.1 |
| 20260902183024 | 21 | 29 | 0.0 | 0.0 | 0.00 | 0.00 | 0.00 | 42 | 1004.3 |
| 20260902181519 | 21 | 23 | 0.0 | 0.0 | 0.00 | 0.00 | 0.00 | 43 | 1004.6 |
| 20260902180017 | 21 | 23 | 0.0 | 0.0 | 0.00 | 0.00 | 0.00 | 43 | 1004.7 |
| 20260902174516 | 20 | 23 | 0.0 | 0.0 | 0.00 | 0.00 | 0.00 | 46 | 1004.9 |
| 20260902173025 | 20 | 23 | 0.0 | 0.0 | 0.00 | 0.00 | 0.00 | 46 | 1005.0 |
| 20260902171509 | 19 | 23 | 0.0 | 0.0 | 0.00 | 0.00 | 0.00 | 48 | 1005.3 |
| 20260902170010 | 18 | 23 | 0.0 | 0.0 | 0.00 | 0.00 | 0.00 | 51 | 1005.3 |
| 20260902164505 | 18 | 318 | 0.0 | 0.0 | 0.00 | 0.00 | 0.00 | 53 | 1005.4 |
| 20260902163001 | 18 | 322 | 0.0 | 0.0 | 0.00 | 0.00 | 0.00 | 50 | 1005.4 |
| 20260902161607 | 17 | 322 | 0.0 | 0.0 | 0.00 | 0.00 | 0.00 | 52 | 1005.4 |
| 20260902160057 | 17 | 322 | 0.0 | 0.0 | 0.00 | 0.00 | 0.00 | 52 | 1005.6 |
| 20260902154553 | 17 | 326 | 0.0 | 0.0 | 0.00 | 0.00 | 0.00 | 53 | 1005.8 |
| 20260902153052 | 17 | 326 | 0.0 | 0.0 | 0.00 | 0.00 | 0.00 | 54 | 1006.0 |
| 20260902151549 | 16 | 314 | 0.0 | 0.0 | 0.00 | 0.00 | 0.00 | 59 | 1006.1 |
| 20260902150049 | 13 | 316 | 0.0 | 0.0 | 0.00 | 0.00 | 0.00 | 63 | 1006.3 |
| 20260902144548 | 13 | 314 | 0.0 | 0.0 | 0.00 | 0.00 | 0.00 | 64 | 1006.5 |
| 20260902143047 | 13 | 327 | 0.0 | 0.0 | 0.00 | 0.00 | 0.00 | 65 | 1006.4 |
| 20260902141547 | 12 | 254 | 0.0 | 0.0 | 0.00 | 0.00 | 0.00 | 66 | 1006.4 |
| 20260902140049 | 12 | 249 | 0.0 | 0.0 | 0.00 | 0.00 | 0.00 | 66 | 1006.5 |
| 20260902134547 | 13 | 248 | 0.0 | 0.0 | 0.00 | 0.00 | 0.00 | 64 | 1006.5 |
| 20260902133043 | 13 | 247 | 0.0 | 0.0 | 0.00 | 0.00 | 0.00 | 64 | 1006.5 |
| 20260902131542 | 13 | 248 | 0.0 | 0.0 | 0.00 | 0.00 | 0.00 | 63 | 1006.5 |
| 20260902130043 | 13 | 247 | 0.0 | 0.0 | 0.00 | 0.00 | 0.00 | 66 | 1006.2 |
| 20260902124542 | 13 | 247 | 0.0 | 0.0 | 0.00 | 0.00 | 0.00 | 66 | 1006.1 |
| 20260902123043 | 13 | 248 | 0.0 | 0.0 | 0.00 | 0.00 | 0.00 | 66 | 1006.1 |
| 20260902121539 | 13 | 247 | 0.0 | 0.0 | 0.00 | 0.00 | 0.00 | 67 | 1006.1 |
| 20260902120038 | 13 | 248 | 0.0 | 0.0 | 0.00 | 0.00 | 0.00 | 66 | 1005.7 |
| 20260902114603 | 13 | 247 | 0.0 | 0.0 | 0.00 | 0.00 | 0.00 | 65 | 1005.6 |
| 20260902113046 | 14 | 247 | 0.0 | 0.0 | 0.00 | 0.00 | 0.00 | 64 | 1005.7 |
| 20260902111534 | 15 | 248 | 0.0 | 0.0 | 0.00 | 0.00 | 0.00 | 64 | 1006.1 |
| 20260902110039 | 14 | 247 | 0.0 | 0.0 | 0.00 | 0.00 | 0.00 | 66 | 1006.4 |